{"data":{"norad_id":51646,"intl_designator":"2022-012AA","name":"ONEWEB-0456","alt_names":[],"object_type":"PAYLOAD","status":"ACTIVE","operator":null,"country":"UK","launch_date":"2022-02-10","launch_site_code":"FRGUI","launch_vehicle":null,"mission":null,"orbit_class":"UNKNOWN","rcs_meters":null,"size_class":null,"mass_kg":null,"dimensions":null,"purposes":["comms"],"wikipedia_slug":null,"has_3d_model":false,"image_url":null,"decayed_at":null,"tle_current":{"epoch":"2026-05-25T03:08:09.216672Z","epoch_age_seconds":63873,"freshness":"FRESH","line1":"1 51646U 22012AA  26145.13066223 -.00000475  00000+0 -13972-2 0  9991","line2":"2 51646  87.8869  40.8409 0001764  73.0345 287.0976 13.10380042206329","mean_motion":13.10380042,"eccentricity":0.0001764,"inclination_deg":87.8869,"raan_deg":40.8409,"arg_perigee_deg":73.0345,"mean_anomaly_deg":287.0976,"bstar":-0.0013972,"rev_number":20632,"period_min":109.89178359296,"perigee_km":1220.3486060275,"apogee_km":1223.0298247163,"semimajor_km":7599.8262153719,"source":"CELESTRAK","updated_at":"2026-05-25T13:38:22.581350Z"}}}